CZ-6A R/B

基本信息
目录编号:
62803
目录名称:
CZ-6A R/B
国际标识:
2025-016U
轨道中心:
EARTH
物体状态:
在轨
发射日期:
2025-01-23 UTC
国别:
中国 (CN)
轨道信息
数据来源: 国际轨道数据
星历时间: 2026-09-05T05:54:34+0800
半长轴: 7095.566km
偏心率: 0.009797
轨道倾角: 89.000°
近地点辐角: 254.582°
升交点赤经: 67.133°
平近点角: 104.455°
近地点: 647.913km
远地点: 786.945km
周期: 99.138分钟
每日圈数: 14.525203
详细信息
发射场:
TSC
轨道高度:
LEO
数据来源:
AOE Integration Group
参考系:
TEME
时间系统:
UTC
历元类型:
SGP4
2D轨道图
3D轨道图
轨道高度分析图
轨道倾角分析图
轨道综合分析图
查看轨道综合分析图